Вернуться в каталог

SL-12 DEB

LostHEO
NORAD 44870·DEBRIS·🇷🇺 Russia

Запущен Sep 2, 2010 с Baikonur Cosmodrome

Loading…

Ближайшие Пролёты (ближайшие 24 часа)

TLE

УстаревшееSource: Space-Track

Эпоха: Dec 3, 2021, 00:40 UTC

1 44870U 10041AK  21337.02790640  .00007282  00000-0  35666-2 0  9990
2 44870  65.6522 331.0226 5706523 345.6466   3.2265  4.42262977 36101

Отслеживайте SL-12 DEB в реальном времени с AllMySat

Download on the App Store